Date,TemperatureHighF,TemperatureAvgF,TemperatureLowF,DewpointHighF,DewpointAvgF,DewpointLowF,HumidityHigh,HumidityAvg,HumidityLow,PressureMaxIn,PressureMinIn,WindSpeedMaxMPH,WindSpeedAvgMPH,GustSpeedMaxMPH,PrecipitationSumIn
2014-1-1,46.8,36.9,28.1,31.7,27.8,24.5,87,70,47,30.24,29.93,6,2,9,0.05
2014-1-2,39.4,32.1,20.6,34.5,29.5,17.6,96,90,76,29.95,29.76,15,5,19,0.19
2014-1-6,1.4,-2.3,-4.4,-6.7,-10.0,-11.9,77,69,59,30.46,30.23,14,10,23,0.00
2014-1-7,15.6,5.3,-4.0,6.3,-2.5,-10.0,80,70,56,30.53,30.36,9,3,23,0.00
2014-1-8,34.1,24.2,11.0,25.2,15.5,5.6,80,69,58,30.43,30.35,5,1,23,0.00
2014-1-9,38.9,32.3,28.8,32.1,26.6,22.5,93,80,56,30.43,30.20,6,2,23,0.03
2014-1-10,52.8,43.9,34.1,49.8,41.5,31.9,95,91,88,30.20,29.65,5,1,23,0.10
2014-1-11,52.2,44.7,33.7,51.1,41.5,31.3,97,89,78,29.79,29.45,12,5,23,0.74
2014-1-12,52.6,41.9,32.3,35.8,33.5,30.0,92,74,48,30.02,29.79,7,3,23,0.00
2014-1-13,52.3,49.0,44.5,47.6,41.5,32.5,95,77,52,29.82,29.64,7,4,23,0.26
2014-1-14,51.8,39.5,29.7,42.4,34.1,25.6,95,82,57,29.92,29.71,14,3,23,0.02
2014-1-15,33.2,27.4,21.8,25.8,19.5,15.4,83,72,59,30.07,29.91,8,5,23,0.00
2014-1-16,35.3,27.5,17.8,32.6,22.2,14.8,93,81,64,30.04,29.70,5,2,23,0.00
2014-1-17,34.1,23.0,15.2,32.3,18.3,8.7,94,82,63,30.06,29.70,12,5,23,0.00
2014-1-18,34.6,24.5,14.6,25.7,17.2,10.2,89,74,60,30.05,29.73,7,2,12,0.00
2014-1-19,38.2,32.9,24.2,32.5,25.8,19.5,88,75,61,30.01,29.73,11,5,15,0.00
2014-1-20,50.8,40.9,34.6,33.9,29.9,25.5,84,65,50,29.86,29.72,7,3,12,0.00
2014-1-21,36.8,20.2,3.5,31.5,13.7,0.0,95,77,49,30.18,29.71,14,4,26,0.00
2014-1-22,20.6,10.4,-0.8,17.5,4.8,-4.2,89,78,63,30.18,30.01,9,2,12,0.00
2014-1-23,19.3,8.4,1.9,15.6,0.3,-3.9,88,69,57,30.64,30.12,11,6,16,0.00
2014-1-24,23.4,10.8,-3.7,8.4,0.9,-7.3,87,66,44,30.65,29.91,8,3,15,0.00
2014-1-25,38.9,26.9,14.5,26.5,14.5,0.3,93,62,27,29.92,29.57,21,8,29,0.06
2014-1-26,52.3,33.8,12.8,36.6,20.4,3.6,79,58,41,29.93,29.54,10,3,15,0.00
2014-1-27,48.1,18.1,7.6,36.8,4.9,-3.3,73,56,45,30.39,29.59,18,8,24,0.00
2014-1-28,7.5,4.2,1.0,-2.1,-3.4,-6.5,77,70,63,30.44,30.38,4,2,12,0.00